When you browse on this site, cookies collect data to enhance your experience and personalize the content and advertising you see.
Visit our Privacy Policy to learn more. By continuing to use the site, you agree to this use of cookies and data.
  • In Deutschland
  • Länderverzeichnis
  • Für 7 Tage
  • Wassertemperatur
  • Wetterkarte
  • Widgets
  • user-avatar
    Anmelden

    Stündliche Wetter Gornouralskiy

    Heute, 16 Oktober, Mittwoch

    Zeit Temperatur Niederschläge Wind Luftdruck Luftfeuchtigkeit
    00:00 0°C° 0 mm 3 m/S 731 mmHg 88%
    01:00 -1°C° 0 mm 3 m/S 731 mmHg 88%
    02:00 0°C° 0 mm 3 m/S 732 mmHg 87%
    03:00 0°C° 0 mm 3 m/S 732 mmHg 86%
    04:00 0°C° 0 mm 3 m/S 732 mmHg 86%
    05:00 0°C° 0 mm 3 m/S 733 mmHg 86%
    06:00 0°C° 0 mm 3 m/S 733 mmHg 86%
    07:00 0°C° 0 mm 3 m/S 734 mmHg 86%
    08:00 +1°C° 0 mm 3 m/S 734 mmHg 83%
    09:00 0°C° 0 mm 4 m/S 735 mmHg 79%
    10:00 0°C° 0 mm 4 m/S 735 mmHg 75%
    11:00 +1°C° 0 mm 4 m/S 735 mmHg 74%
    12:00 +1°C° 0 mm 4 m/S 736 mmHg 72%
    13:00 +1°C° 0 mm 4 m/S 736 mmHg 70%
    14:00 +1°C° 0 mm 4 m/S 737 mmHg 71%
    15:00 +1°C° 0 mm 4 m/S 737 mmHg 71%
    16:00 0°C° 0 mm 4 m/S 738 mmHg 72%
    17:00 -1°C° 0 mm 4 m/S 739 mmHg 74%
    18:00 -1°C° 0 mm 4 m/S 739 mmHg 76%
    19:00 -2°C° 0 mm 4 m/S 739 mmHg 78%
    20:00 -2°C° 0 mm 4 m/S 740 mmHg 79%
    21:00 -2°C° 0 mm 4 m/S 740 mmHg 81%
    22:00 -3°C° 0 mm 4 m/S 741 mmHg 82%
    23:00 -3°C° 0 mm 4 m/S 741 mmHg 81%

    Morgen, 17 Oktober, Donnerstag

    Zeit Temperatur Niederschläge Wind Luftdruck Luftfeuchtigkeit
    00:00 -3°C° 0 mm 4 m/S 741 mmHg 80%
    01:00 -2°C° 0 mm 3 m/S 741 mmHg 79%
    02:00 -2°C° 0 mm 3 m/S 742 mmHg 80%
    03:00 -2°C° 0 mm 3 m/S 742 mmHg 80%
    04:00 -2°C° 0 mm 3 m/S 742 mmHg 81%
    05:00 -2°C° 0 mm 3 m/S 743 mmHg 81%
    06:00 -2°C° 0 mm 3 m/S 743 mmHg 81%
    07:00 -3°C° 0 mm 4 m/S 743 mmHg 81%
    08:00 -3°C° 0 mm 4 m/S 743 mmHg 77%
    09:00 -2°C° 0 mm 4 m/S 743 mmHg 72%
    10:00 -1°C° 0 mm 4 m/S 743 mmHg 68%
    11:00 -1°C° 0 mm 4 m/S 743 mmHg 68%
    12:00 0°C° 0 mm 3 m/S 743 mmHg 67%
    13:00 0°C° 0 mm 3 m/S 743 mmHg 67%
    14:00 0°C° 0 mm 3 m/S 743 mmHg 68%
    15:00 0°C° 0 mm 3 m/S 743 mmHg 70%
    16:00 -1°C° 0 mm 3 m/S 743 mmHg 71%
    17:00 -1°C° 0 mm 2 m/S 742 mmHg 76%
    18:00 -1°C° 0 mm 2 m/S 742 mmHg 80%
    19:00 0°C° 0 mm 1 m/S 742 mmHg 84%
    20:00 0°C° 0.3 mm 1 m/S 741 mmHg 88%
    21:00 0°C° 0.3 mm 1 m/S 741 mmHg 92%
    22:00 0°C° 0.3 mm 1 m/S 741 mmHg 96%
    23:00 0°C° 0.5 mm 1 m/S 740 mmHg 96%

    übermorgen, 18 Oktober, Freitag

    Zeit Temperatur Niederschläge Wind Luftdruck Luftfeuchtigkeit
    00:00 0°C° 0.5 mm 1 m/S 739 mmHg 96%
    01:00 0°C° 0.5 mm 1 m/S 738 mmHg 97%
    02:00 0°C° 0.3 mm 1 m/S 738 mmHg 97%
    03:00 0°C° 0.3 mm 1 m/S 738 mmHg 97%
    04:00 0°C° 0.3 mm 1 m/S 738 mmHg 97%
    05:00 -2°C° 0.2 mm 2 m/S 737 mmHg 97%
    06:00 -2°C° 0.2 mm 2 m/S 737 mmHg 97%
    07:00 -3°C° 0.2 mm 2 m/S 736 mmHg 97%
    08:00 -2°C° 0.3 mm 2 m/S 737 mmHg 96%
    09:00 -2°C° 0.3 mm 3 m/S 737 mmHg 94%
    10:00 -1°C° 0.3 mm 3 m/S 737 mmHg 92%
    11:00 -1°C° 0.2 mm 3 m/S 737 mmHg 91%
    12:00 -2°C° 0.2 mm 4 m/S 738 mmHg 89%
    13:00 -1°C° 0.2 mm 4 m/S 738 mmHg 88%
    14:00 -2°C° 0.1 mm 4 m/S 739 mmHg 88%
    15:00 -2°C° 0.1 mm 4 m/S 739 mmHg 89%
    16:00 -2°C° 0.1 mm 4 m/S 740 mmHg 90%
    17:00 -3°C° 0.1 mm 4 m/S 741 mmHg 89%
    18:00 -4°C° 0.1 mm 4 m/S 741 mmHg 87%
    19:00 -4°C° 0.1 mm 4 m/S 742 mmHg 86%
    20:00 -4°C° 0 mm 4 m/S 743 mmHg 84%
    21:00 -5°C° 0 mm 4 m/S 743 mmHg 83%
    22:00 -5°C° 0 mm 3 m/S 744 mmHg 81%
    23:00 -6°C° 0 mm 3 m/S 744 mmHg 86%

    19 Oktober, Samstag

    Zeit Temperatur Niederschläge Wind Luftdruck Luftfeuchtigkeit
    00:00 -6°C° 0 mm 2 m/S 745 mmHg 90%
    01:00 -7°C° 0 mm 2 m/S 745 mmHg 94%
    02:00 -7°C° 0 mm 2 m/S 746 mmHg 95%
    03:00 -7°C° 0 mm 2 m/S 746 mmHg 95%
    04:00 -8°C° 0 mm 2 m/S 747 mmHg 96%
    05:00 -7°C° 0 mm 1 m/S 747 mmHg 95%
    06:00 -7°C° 0 mm 1 m/S 747 mmHg 95%
    07:00 -7°C° 0 mm 1 m/S 748 mmHg 95%
    08:00 -4°C° 0 mm 1 m/S 748 mmHg 87%
    09:00 -3°C° 0 mm 1 m/S 749 mmHg 79%
    10:00 -2°C° 0 mm 1 m/S 749 mmHg 71%
    11:00 -1°C° 0 mm 1 m/S 749 mmHg 67%
    12:00 0°C° 0 mm 1 m/S 749 mmHg 63%
    13:00 0°C° 0 mm 0 m/S 749 mmHg 59%
    14:00 -1°C° 0 mm 0 m/S 749 mmHg 62%
    15:00 -1°C° 0 mm 0 m/S 749 mmHg 65%
    16:00 -2°C° 0 mm 0 m/S 749 mmHg 68%
    17:00 -3°C° 0 mm 0 m/S 749 mmHg 72%
    18:00 -3°C° 0 mm 1 m/S 749 mmHg 75%
    19:00 -3°C° 0 mm 1 m/S 749 mmHg 79%
    20:00 -4°C° 0 mm 1 m/S 750 mmHg 80%
    21:00 -4°C° 0 mm 1 m/S 750 mmHg 82%
    22:00 -4°C° 0 mm 1 m/S 750 mmHg 83%
    23:00 -4°C° 0 mm 1 m/S 750 mmHg 84%

    20 Oktober, Sonntag

    Zeit Temperatur Niederschläge Wind Luftdruck Luftfeuchtigkeit
    00:00 -6°C° 0 mm 2 m/S 750 mmHg 85%
    01:00 -6°C° 0 mm 2 m/S 750 mmHg 86%
    02:00 -6°C° 0 mm 2 m/S 749 mmHg 86%
    03:00 -7°C° 0 mm 2 m/S 749 mmHg 86%
    04:00 -7°C° 0 mm 2 m/S 749 mmHg 86%
    05:00 -6°C° 0 mm 2 m/S 749 mmHg 85%
    06:00 -6°C° 0 mm 2 m/S 749 mmHg 84%
    07:00 -6°C° 0 mm 2 m/S 749 mmHg 83%
    08:00 -5°C° 0 mm 2 m/S 749 mmHg 77%
    09:00 -5°C° 0 mm 3 m/S 749 mmHg 72%
    10:00 -2°C° 0 mm 3 m/S 748 mmHg 66%
    11:00 -2°C° 0 mm 4 m/S 748 mmHg 66%
    12:00 -1°C° 0 mm 4 m/S 747 mmHg 66%
    13:00 0°C° 0 mm 4 m/S 747 mmHg 67%
    14:00 -1°C° 0 mm 4 m/S 746 mmHg 69%
    15:00 -1°C° 0 mm 4 m/S 746 mmHg 72%
    16:00 -1°C° 0 mm 4 m/S 746 mmHg 74%
    17:00 -2°C° 0 mm 5 m/S 745 mmHg 74%
    18:00 -2°C° 0 mm 5 m/S 745 mmHg 74%
    19:00 -3°C° 0 mm 6 m/S 744 mmHg 74%
    20:00 -3°C° 0 mm 6 m/S 744 mmHg 76%
    21:00 -3°C° 0 mm 6 m/S 744 mmHg 78%
    22:00 -2°C° 0 mm 6 m/S 743 mmHg 81%
    23:00 -2°C° 0.1 mm 6 m/S 743 mmHg 84%

    21 Oktober, Montag

    Zeit Temperatur Niederschläge Wind Luftdruck Luftfeuchtigkeit
    00:00 -2°C° 0.1 mm 6 m/S 743 mmHg 87%
    01:00 -2°C° 0.1 mm 6 m/S 742 mmHg 90%
    02:00 0°C° 0.1 mm 5 m/S 742 mmHg 91%
    03:00 0°C° 0.1 mm 4 m/S 742 mmHg 92%
    04:00 0°C° 0.1 mm 4 m/S 742 mmHg 93%
    05:00 0°C° 0.1 mm 4 m/S 742 mmHg 93%
    06:00 +1°C° 0.1 mm 3 m/S 741 mmHg 93%
    07:00 +1°C° 0.1 mm 3 m/S 741 mmHg 94%
    08:00 +2°C° 0 mm 3 m/S 741 mmHg 93%
    09:00 +2°C° 0 mm 3 m/S 741 mmHg 93%
    10:00 +3°C° 0 mm 2 m/S 742 mmHg 93%
    11:00 +3°C° 0.1 mm 2 m/S 742 mmHg 93%
    12:00 +3°C° 0.1 mm 2 m/S 742 mmHg 93%
    13:00 +4°C° 0.1 mm 2 m/S 742 mmHg 93%
    14:00 +3°C° 0 mm 2 m/S 743 mmHg 94%
    15:00 +4°C° 0 mm 1 m/S 743 mmHg 94%
    16:00 +4°C° 0 mm 1 m/S 743 mmHg 95%
    17:00 +4°C° 0 mm 1 m/S 744 mmHg 96%
    18:00 +3°C° 0 mm 1 m/S 744 mmHg 97%
    19:00 +3°C° 0 mm 1 m/S 744 mmHg 97%
    20:00 +3°C° 0 mm 1 m/S 744 mmHg 98%
    21:00 +3°C° 0 mm 1 m/S 744 mmHg 98%
    22:00 +2°C° 0 mm 1 m/S 745 mmHg 98%
    23:00 +2°C° 0 mm 1 m/S 744 mmHg 98%
    Mehr zeigen